WZZ4D EDLW-LHBP

Flight info

Callsign WZZ4D
Flight time N/A
Altitude 37000
Route GMH8Q GMH Q603 TESGA DCT ESATI DCT BARSU DCT EKSOS DCT LULAR DCT RUDAP DCT BUDEX DCT MAREG DCT ANEXA
Aircraft A321/M-SDE1E2E3FGIJ1J4RWXY/LB1

Departure

Time 2026-05-07 14:59
Airport Dortmund Airport (EDLW)

Arrival

Time N/A
Airport Budapest Liszt Ferenc International Airport (LHBP)
Time Latitude Longitude Altitude Speed Heading
2026-05-07 13:57 51.51642 7.61461 422 ft 0 kts 332°
2026-05-07 14:55 51.51643 7.61461 434 ft 1 kts 332°
2026-05-07 14:56 51.51653 7.61452 422 ft 3 kts 332°
2026-05-07 14:56 51.51676 7.61430 427 ft 5 kts 322°
2026-05-07 14:56 51.51687 7.61365 423 ft 8 kts 261°
2026-05-07 14:56 51.51659 7.61270 429 ft 10 kts 240°
2026-05-07 14:57 51.51621 7.61164 424 ft 12 kts 240°
2026-05-07 14:57 51.51582 7.61036 428 ft 14 kts 245°
2026-05-07 14:57 51.51531 7.60882 424 ft 18 kts 241°
2026-05-07 14:57 51.51458 7.60673 416 ft 23 kts 240°
2026-05-07 14:58 51.51387 7.60471 414 ft 22 kts 242°
2026-05-07 14:58 51.51389 7.60276 414 ft 19 kts 323°
2026-05-07 14:58 51.51504 7.60288 413 ft 21 kts 51°
2026-05-07 14:58 51.51650 7.60697 410 ft 78 kts 61°
2026-05-07 14:59 51.52035 7.61789 416 ft 144 kts 59°
2026-05-07 14:59 51.52538 7.63236 1060 ft 146 kts 59°
2026-05-07 14:59 51.53033 7.64663 1845 ft 149 kts 59°
2026-05-07 14:59 51.53570 7.66189 2239 ft 167 kts 59°
2026-05-07 15:00 51.54185 7.67927 2545 ft 191 kts 59°
2026-05-07 15:00 51.54881 7.69887 2848 ft 214 kts 59°
2026-05-07 15:00 51.55664 7.72095 3185 ft 240 kts 60°
2026-05-07 15:00 51.56139 7.74740 3811 ft 257 kts 91°
2026-05-07 15:01 51.55552 7.77478 4575 ft 270 kts 127°
2026-05-07 15:01 51.54053 7.79287 5397 ft 275 kts 162°
2026-05-07 15:01 51.52168 7.79884 6279 ft 278 kts 171°
2026-05-07 15:01 51.50290 7.80728 7125 ft 283 kts 163°
2026-05-07 15:02 51.48404 7.81666 7984 ft 286 kts 163°
2026-05-07 15:02 51.46484 7.82620 8820 ft 291 kts 163°
2026-05-07 15:02 51.44545 7.83584 9736 ft 293 kts 163°
2026-05-07 15:02 51.42578 7.84564 10412 ft 303 kts 163°
2026-05-07 15:03 51.40486 7.85609 10678 ft 326 kts 163°
2026-05-07 15:03 51.38286 7.86711 11254 ft 335 kts 163°
2026-05-07 15:03 51.36043 7.87833 11994 ft 340 kts 163°
2026-05-07 15:03 51.33770 7.88970 12762 ft 344 kts 163°
2026-05-07 15:04 51.31470 7.90123 13508 ft 349 kts 163°
2026-05-07 15:04 51.29142 7.91292 14225 ft 352 kts 163°
2026-05-07 15:04 51.26788 7.92470 14903 ft 356 kts 164°
2026-05-07 15:04 51.24411 7.93653 15610 ft 359 kts 163°
2026-05-07 15:05 51.22020 7.94839 16351 ft 361 kts 164°
2026-05-07 15:05 51.19609 7.96037 17072 ft 364 kts 164°
2026-05-07 15:05 51.17177 7.97246 17819 ft 368 kts 164°
2026-05-07 15:05 51.14725 7.98463 18535 ft 371 kts 164°
2026-05-07 15:06 51.12251 7.99689 19152 ft 374 kts 164°
2026-05-07 15:06 51.09755 8.00920 19776 ft 377 kts 165°
2026-05-07 15:06 51.07242 8.02158 20410 ft 380 kts 164°
2026-05-07 15:06 51.04706 8.03411 21025 ft 383 kts 164°
2026-05-07 15:07 51.02165 8.04777 21619 ft 388 kts 159°
2026-05-07 15:07 50.99758 8.06777 22198 ft 394 kts 148°
2026-05-07 15:07 50.97443 8.09139 22782 ft 398 kts 148°
2026-05-07 15:07 50.95099 8.11517 23372 ft 402 kts 148°
2026-05-07 15:08 50.92732 8.13905 23914 ft 405 kts 149°
2026-05-07 15:08 50.90344 8.16306 24406 ft 408 kts 148°
2026-05-07 15:08 50.87940 8.18722 24913 ft 410 kts 148°
2026-05-07 15:08 50.85523 8.21147 25400 ft 413 kts 148°
2026-05-07 15:09 50.83084 8.23588 25865 ft 416 kts 148°
2026-05-07 15:09 50.80630 8.26040 26353 ft 419 kts 148°
2026-05-07 15:09 50.78156 8.28512 26819 ft 422 kts 148°
2026-05-07 15:09 50.75666 8.30997 27257 ft 425 kts 148°
2026-05-07 15:10 50.73157 8.33505 27704 ft 428 kts 148°
2026-05-07 15:10 50.70633 8.36029 28152 ft 431 kts 148°
2026-05-07 15:10 50.68087 8.38566 28609 ft 434 kts 148°
2026-05-07 15:10 50.65526 8.41113 29052 ft 437 kts 148°
2026-05-07 15:11 50.62947 8.43672 29522 ft 439 kts 148°
2026-05-07 15:11 50.60359 8.46236 30008 ft 441 kts 148°
2026-05-07 15:11 50.57759 8.48810 30387 ft 443 kts 148°
2026-05-07 15:11 50.55142 8.51400 30721 ft 446 kts 148°
2026-05-07 15:12 50.52472 8.54038 31053 ft 449 kts 148°
2026-05-07 15:12 50.49818 8.56652 31374 ft 452 kts 148°
2026-05-07 15:12 50.47145 8.59282 31709 ft 455 kts 148°
2026-05-07 15:12 50.44522 8.62077 32024 ft 458 kts 142°
2026-05-07 15:13 50.42152 8.65423 32462 ft 458 kts 136°
2026-05-07 15:13 50.39868 8.68899 32928 ft 458 kts 136°
2026-05-07 15:13 50.37579 8.72362 33379 ft 457 kts 136°
2026-05-07 15:13 50.35289 8.75807 33818 ft 457 kts 136°
2026-05-07 15:14 50.33017 8.79208 34210 ft 457 kts 136°
2026-05-07 15:14 50.30723 8.82643 34551 ft 457 kts 137°
2026-05-07 15:14 50.28425 8.86086 34877 ft 457 kts 137°
2026-05-07 15:14 50.26129 8.89525 35202 ft 457 kts 137°
2026-05-07 15:15 50.23830 8.92964 35539 ft 457 kts 137°
2026-05-07 15:15 50.21498 8.96444 35874 ft 457 kts 137°
2026-05-07 15:15 50.19231 8.99826 36208 ft 457 kts 137°
2026-05-07 15:15 50.16903 9.03292 36521 ft 457 kts 137°
2026-05-07 15:16 50.14603 9.06706 36813 ft 456 kts 137°
2026-05-07 15:16 50.12331 9.10075 37030 ft 457 kts 138°
2026-05-07 15:16 50.08054 9.17428 37053 ft 456 kts 124°
2026-05-07 15:17 50.05511 9.26377 37060 ft 459 kts 104°
2026-05-07 15:17 50.04371 9.36152 37059 ft 459 kts 101°
2026-05-07 15:18 50.03255 9.45945 37058 ft 460 kts 101°
2026-05-07 15:18 50.02120 9.55750 37060 ft 461 kts 101°
2026-05-07 15:19 50.00976 9.65566 37061 ft 462 kts 101°
2026-05-07 15:19 49.99826 9.75393 37062 ft 462 kts 101°
2026-05-07 15:20 49.98666 9.85226 37065 ft 463 kts 101°
2026-05-07 15:20 49.97491 9.95057 37071 ft 463 kts 101°
2026-05-07 15:21 49.96316 10.04885 37067 ft 462 kts 101°
2026-05-07 15:21 49.95131 10.14697 37070 ft 462 kts 101°
2026-05-07 15:22 49.93939 10.24509 37071 ft 463 kts 101°
2026-05-07 15:22 49.92741 10.34319 37072 ft 463 kts 102°
2026-05-07 15:23 49.90908 10.43839 37064 ft 460 kts 113°
2026-05-07 15:23 49.88506 10.53045 37065 ft 461 kts 113°
2026-05-07 15:24 49.86125 10.62268 37056 ft 461 kts 113°
2026-05-07 15:24 49.84149 10.69934 37061 ft 461 kts 113°
2026-05-07 15:25 49.81753 10.79140 37073 ft 461 kts 113°
2026-05-07 15:25 49.79341 10.88336 37076 ft 461 kts 113°
2026-05-07 15:26 49.76917 10.97521 37069 ft 461 kts 114°
2026-05-07 15:26 49.74491 11.06704 37066 ft 461 kts 114°
2026-05-07 15:27 49.72039 11.15960 37076 ft 461 kts 114°
2026-05-07 15:27 49.69624 11.25045 37073 ft 461 kts 114°
2026-05-07 15:28 49.67170 11.34202 37059 ft 461 kts 114°
2026-05-07 15:28 49.64754 11.43374 37060 ft 462 kts 112°
2026-05-07 15:29 49.62727 11.52782 37053 ft 462 kts 108°
2026-05-07 15:29 49.60903 11.62288 37038 ft 462 kts 108°
2026-05-07 15:30 49.59003 11.71759 37020 ft 462 kts 109°
2026-05-07 15:30 49.57015 11.81185 37021 ft 463 kts 110°
2026-05-07 15:31 49.55005 11.90603 37029 ft 463 kts 110°
2026-05-07 15:31 49.52998 12.00028 37038 ft 464 kts 110°
2026-05-07 15:32 49.50993 12.09464 37041 ft 463 kts 110°
2026-05-07 15:32 49.48990 12.18878 37044 ft 463 kts 110°
2026-05-07 15:33 49.46971 12.28279 37048 ft 463 kts 110°
2026-05-07 15:33 49.44944 12.37663 37049 ft 462 kts 110°
2026-05-07 15:34 49.42905 12.47028 37047 ft 462 kts 110°
2026-05-07 15:34 49.40870 12.56396 37047 ft 462 kts 110°
2026-05-07 15:35 49.38829 12.65755 37031 ft 462 kts 111°
2026-05-07 15:35 49.36767 12.75100 37039 ft 462 kts 111°
2026-05-07 15:36 49.34624 12.84320 37041 ft 462 kts 113°
2026-05-07 15:36 49.32327 12.93512 37046 ft 462 kts 113°
2026-05-07 15:37 49.30004 13.02750 37040 ft 461 kts 113°
2026-05-07 15:37 49.27728 13.11947 37029 ft 462 kts 113°
2026-05-07 15:38 49.25474 13.21097 37029 ft 463 kts 113°
2026-05-07 15:38 49.23156 13.30368 37030 ft 463 kts 114°
2026-05-07 15:39 49.20739 13.39425 37027 ft 463 kts 115°
2026-05-07 15:39 49.18242 13.48503 37017 ft 463 kts 115°
2026-05-07 15:40 49.15755 13.57580 37017 ft 464 kts 115°
2026-05-07 15:40 49.13290 13.66687 37018 ft 464 kts 115°
2026-05-07 15:41 49.10821 13.75790 37011 ft 464 kts 115°
2026-05-07 15:41 49.08333 13.84887 37003 ft 464 kts 115°
2026-05-07 15:42 49.05836 13.93962 37010 ft 464 kts 115°
2026-05-07 15:42 49.03332 14.03028 37014 ft 464 kts 116°
2026-05-07 15:43 49.00827 14.12079 37010 ft 464 kts 116°
2026-05-07 15:43 48.98313 14.21120 36992 ft 463 kts 116°
2026-05-07 15:44 48.95791 14.30138 36999 ft 463 kts 116°
2026-05-07 15:44 48.93275 14.39154 37001 ft 463 kts 116°
2026-05-07 15:45 48.90811 14.48208 37003 ft 463 kts 115°
2026-05-07 15:45 48.88358 14.57260 37002 ft 463 kts 116°
2026-05-07 15:46 48.84633 14.70792 36991 ft 463 kts 116°
2026-05-07 15:47 48.82130 14.79796 36996 ft 463 kts 116°
2026-05-07 15:47 48.79622 14.88785 36996 ft 463 kts 116°
2026-05-07 15:48 48.77108 14.97773 36997 ft 463 kts 116°
2026-05-07 15:48 48.74596 15.06763 36968 ft 463 kts 117°
2026-05-07 15:49 48.72081 15.15746 36973 ft 464 kts 117°
2026-05-07 15:49 48.69547 15.24732 36980 ft 464 kts 117°
2026-05-07 15:50 48.66993 15.33700 36982 ft 464 kts 117°
2026-05-07 15:50 48.64436 15.42662 36964 ft 464 kts 117°
2026-05-07 15:51 48.61878 15.51618 36974 ft 464 kts 117°
2026-05-07 15:51 48.59312 15.60566 36967 ft 464 kts 117°
2026-05-07 15:52 48.56744 15.69502 36971 ft 464 kts 117°
2026-05-07 15:52 48.54174 15.78426 36955 ft 463 kts 118°
2026-05-07 15:53 48.51599 15.87330 36961 ft 463 kts 118°
2026-05-07 15:53 48.49011 15.96212 36971 ft 462 kts 118°
2026-05-07 15:54 48.48153 15.99149 36972 ft 462 kts 118°